Other Public Products
Issued by NWS Charleston, SC

Current Version | Previous Version | Graphics & Text | Print | Product List | Glossary On
Versions: 1 2 3 4 5 6 7 8 9 10 11 12 13 14 15 16 17 18 19 20 21 22 23 24 25 26 27 28 29 30 31 32 33 34 35 36 37 38 39 40 41 42 43 44 45 46 47 48 49 50
274
FPUS82 KCHS 092127
OPUCHS

TEST...KCHS/KSAV Gateway Observations...TEST
National Weather Service Charleston SC
400 PM EST FRI DEC 09 2016

NOTE: "fair" indicates few or no clouds below 12,000 feet with no
significant weather and/or obstructions to visibility.

SCZ050-WAZ558-NCZ071-TXZ119-213-PAZ071-DCZ001-FLZ074-172-MI076-
NYZ176-178-MAZ016-IL014-TNZ027-NJZ106-GAZ044-MD014-092200-
...Gateway Observations for Charleston International...

CITY           SKY/WX    TMP DP  RH WIND       PRES   REMARKS
Chas Airport   SUNNY     49  18  29 N13       30.37R
Seattle        LGT RAIN  34  32  92 E16       29.94F WCI  24
Charlotte      SUNNY     43  11  27 N8        30.39S
Dallas DFW     PTSUNNY   37  13  37 CALM      30.52F
Dallas Love    CLOUDY    39  14  36 SE3       30.54F
Philladelphia  CLOUDY    38  15  39 W17G30    30.25R WCI  28
Wash National  PTCLDY    38  16  40 W15G28    30.36R WCI  29
Baltimore      PTCLDY    36  16  44 NW16G25   30.31R WCI  26
Miami          CLOUDY    75  63  66 N9G17     30.15R
Detroit        CLOUDY    30  15  53 W12       30.39R WCI  20
Newark         PTCLDY    38  10  31 NW20G35   30.16R WCI  28
Laguardia      MOCLDY    40  18  41 NW26G32   30.15R WCI  29
J F K          MOCLDY    39  11  31 NW30G37   30.16R WCI  27
Boston Logan   PTCLDY    34  11  38 NW17      30.02R WCI  23
Ft. Lauderdale PTSUNNY   74  63  68 N13G23    30.14R
Chicago O`Hare PTSUNNY   25  13  60 W13       30.49S WCI  14
Chicago Midway PTSUNNY   25  11  55 W9        30.51R WCI  15
Houston Bush   PTSUNNY   50  23  34 N6        30.51F
Houston Hobby  PTSUNNY   51  23  33 NE6       30.50F
Nashville      SUNNY     37  14  38 VRB6      30.55S WCI  32
Atlanta        SUNNY     42  14  32 NW10      30.41R

$$

GAZ044-118-TXZ119-213-NCZ071-DCZ001-MDZ014-506-PAZ021-071-NJZ106-
NYZ176-178-MAZ106-OHZ011-021-055-MIZ076-KYZ091-ILZ014-INZ047-
MNZ060-092200-
...Gateway Observations for Savannah International...

CITY           SKY/WX    TMP DP  RH WIND       PRES   REMARKS
Savannah Arpt  SUNNY     52  16  24 N7        30.37R
Atlanta        SUNNY     42  14  32 NW10      30.41R
Charlotte      SUNNY     43  11  27 N8        30.39S
Dallas DFW     PTSUNNY   37  13  37 CALM      30.52F
Houston Bush   PTSUNNY   50  23  34 N6        30.51F
Wash National  PTCLDY    38  16  40 W15G28    30.36R WCI  29
Wash Dulles    PTCLDY    35  15  44 NW17G25   30.35R WCI  25
Baltimore      PTCLDY    36  16  44 NW16G25   30.31R WCI  26
Philadelphia   CLOUDY    38  15  39 W17G30    30.25R WCI  28
Newark         PTCLDY    38  10  31 NW20G35   30.16R WCI  28
Laguardia      MOCLDY    40  18  41 NW26G32   30.15R WCI  29
J F K          MOCLDY    39  11  31 NW30G37   30.16R WCI  27
Boston         PTCLDY    34  11  38 NW17      30.02R WCI  23
Pittsburg      CLOUDY    27  18  69 W9        30.37R WCI  18
Akron          MOCLDY    27  18  69 W14       30.38R WCI  16
Cleveland      CLOUDY    30  20  66 SW14      30.40R WCI  19
Cincinnati     FLURRIES  25  13  60 W9        30.52R WCI  15
Columbus         N/A     28  17  66 W12       30.48R WCI  17
Detroit        CLOUDY    30  15  53 W12       30.39R WCI  20
Chicago O`Hare PTSUNNY   25  13  60 W13       30.49S WCI  14
Minneapolis    PTSUNNY   18   7  62 W8        30.50S WCI   8
Indianapolis   FLURRIES  25  15  66 W9        30.51S WCI  15

$$




USA.gov is the U.S. government's official web portal to all federal, state and local government web resources and services.